<?xml version="1.0" encoding="UTF-8" standalone="no" ?>
<gpx xmlns="http://www.topografix.com/GPX/1/1" xmlns:xsi="http://www.w3.org/2001/XMLSchema-instance" xsi:schemaLocation="http://www.topografix.com/GPX/1/1 http://www.topografix.com/GPX/1/1/gpx.xsd" version="1.1" creator="VisuGPX - https://www.visugpx.com">
  <metadata>
    <name>Ajaccio-Bastia - Etape3</name>
    <desc><![CDATA[Ajaccio-Bastia - Etape3]]></desc>
  </metadata>
  <trk>
    <name><![CDATA[Jour 03 - TraceGps.com issued]]></name>
    <trkseg>
      <trkpt lat="41.71275" lon="8.97525">
        <ele>185</ele>
        <time>2003-07-21T21:35:24Z</time>
      </trkpt>
      <trkpt lat="41.71297" lon="8.975">
        <ele>204</ele>
        <time>2003-07-21T21:35:24Z</time>
      </trkpt>
      <trkpt lat="41.7138" lon="8.97666">
        <ele>187</ele>
        <time>2003-07-21T21:35:24Z</time>
      </trkpt>
      <trkpt lat="41.71342" lon="8.97963">
        <ele>200</ele>
        <time>2003-07-21T21:35:24Z</time>
      </trkpt>
      <trkpt lat="41.71626" lon="8.98209">
        <ele>223</ele>
        <time>2003-07-21T21:35:24Z</time>
      </trkpt>
      <trkpt lat="41.71678" lon="8.98167">
        <ele>231</ele>
        <time>2003-07-21T21:35:24Z</time>
      </trkpt>
      <trkpt lat="41.71764" lon="8.98164">
        <ele>241</ele>
        <time>2003-07-21T21:35:24Z</time>
      </trkpt>
      <trkpt lat="41.7181" lon="8.98388">
        <ele>231</ele>
        <time>2003-07-21T21:35:24Z</time>
      </trkpt>
      <trkpt lat="41.72123" lon="8.98436">
        <ele>256</ele>
        <time>2003-07-21T21:35:24Z</time>
      </trkpt>
      <trkpt lat="41.72384" lon="8.98674">
        <ele>255</ele>
        <time>2003-07-21T21:35:24Z</time>
      </trkpt>
      <trkpt lat="41.72433" lon="8.98619">
        <ele>270</ele>
        <time>2003-07-21T21:35:24Z</time>
      </trkpt>
      <trkpt lat="41.72367" lon="8.98823">
        <ele>289</ele>
        <time>2003-07-21T21:35:24Z</time>
      </trkpt>
      <trkpt lat="41.72239" lon="8.9884">
        <ele>269</ele>
        <time>2003-07-21T21:35:24Z</time>
      </trkpt>
      <trkpt lat="41.72286" lon="8.99007">
        <ele>280</ele>
        <time>2003-07-21T21:35:24Z</time>
      </trkpt>
      <trkpt lat="41.72607" lon="8.99421">
        <ele>332</ele>
        <time>2003-07-21T21:35:24Z</time>
      </trkpt>
      <trkpt lat="41.7266" lon="8.99595">
        <ele>350</ele>
        <time>2003-07-21T21:35:24Z</time>
      </trkpt>
      <trkpt lat="41.72598" lon="8.99582">
        <ele>351</ele>
        <time>2003-07-21T21:35:24Z</time>
      </trkpt>
      <trkpt lat="41.7271" lon="8.99739">
        <ele>383</ele>
        <time>2003-07-21T21:35:24Z</time>
      </trkpt>
      <trkpt lat="41.72698" lon="8.99442">
        <ele>378</ele>
        <time>2003-07-21T21:35:24Z</time>
      </trkpt>
      <trkpt lat="41.73006" lon="9.00089">
        <ele>434</ele>
        <time>2003-07-21T21:35:24Z</time>
      </trkpt>
      <trkpt lat="41.73174" lon="9.00155">
        <ele>458</ele>
        <time>2003-07-21T21:35:24Z</time>
      </trkpt>
      <trkpt lat="41.72874" lon="9.00268">
        <ele>472</ele>
        <time>2003-07-21T21:35:24Z</time>
      </trkpt>
      <trkpt lat="41.72873" lon="9.00347">
        <ele>471</ele>
        <time>2003-07-21T21:35:24Z</time>
      </trkpt>
      <trkpt lat="41.73065" lon="9.00318">
        <ele>495</ele>
        <time>2003-07-21T21:35:24Z</time>
      </trkpt>
      <trkpt lat="41.73173" lon="9.00402">
        <ele>509</ele>
        <time>2003-07-21T21:35:24Z</time>
      </trkpt>
      <trkpt lat="41.7303" lon="9.00375">
        <ele>510</ele>
        <time>2003-07-21T21:35:24Z</time>
      </trkpt>
      <trkpt lat="41.73028" lon="9.00477">
        <ele>516</ele>
        <time>2003-07-21T21:35:24Z</time>
      </trkpt>
      <trkpt lat="41.73109" lon="9.00649">
        <ele>532</ele>
        <time>2003-07-21T21:35:24Z</time>
      </trkpt>
      <trkpt lat="41.73379" lon="9.00743">
        <ele>533</ele>
        <time>2003-07-21T21:35:24Z</time>
      </trkpt>
      <trkpt lat="41.73774" lon="9.01318">
        <ele>551</ele>
        <time>2003-07-21T21:35:24Z</time>
      </trkpt>
      <trkpt lat="41.7392" lon="9.01523">
        <ele>553</ele>
        <time>2003-07-21T21:35:24Z</time>
      </trkpt>
      <trkpt lat="41.73744" lon="9.01818">
        <ele>583</ele>
        <time>2003-07-21T21:35:24Z</time>
      </trkpt>
      <trkpt lat="41.73597" lon="9.0164">
        <ele>594</ele>
        <time>2003-07-21T21:35:24Z</time>
      </trkpt>
      <trkpt lat="41.73409" lon="9.01608">
        <ele>611</ele>
        <time>2003-07-21T21:35:24Z</time>
      </trkpt>
      <trkpt lat="41.73595" lon="9.01754">
        <ele>637</ele>
        <time>2003-07-21T21:35:24Z</time>
      </trkpt>
      <trkpt lat="41.73745" lon="9.02572">
        <ele>712</ele>
        <time>2003-07-21T21:35:24Z</time>
      </trkpt>
      <trkpt lat="41.73796" lon="9.02475">
        <ele>705</ele>
        <time>2003-07-21T21:35:24Z</time>
      </trkpt>
      <trkpt lat="41.73845" lon="9.02558">
        <ele>730</ele>
        <time>2003-07-21T21:35:24Z</time>
      </trkpt>
      <trkpt lat="41.73809" lon="9.02717">
        <ele>729</ele>
        <time>2003-07-21T21:35:24Z</time>
      </trkpt>
      <trkpt lat="41.7372" lon="9.02618">
        <ele>724</ele>
        <time>2003-07-21T21:35:24Z</time>
      </trkpt>
      <trkpt lat="41.73641" lon="9.02657">
        <ele>732</ele>
        <time>2003-07-21T21:35:24Z</time>
      </trkpt>
      <trkpt lat="41.73315" lon="9.0228">
        <ele>789</ele>
        <time>2003-07-21T21:35:24Z</time>
      </trkpt>
      <trkpt lat="41.72778" lon="9.01976">
        <ele>799</ele>
        <time>2003-07-21T21:35:24Z</time>
      </trkpt>
      <trkpt lat="41.72712" lon="9.01789">
        <ele>805</ele>
        <time>2003-07-21T21:35:24Z</time>
      </trkpt>
      <trkpt lat="41.72617" lon="9.01718">
        <ele>805</ele>
        <time>2003-07-21T21:35:24Z</time>
      </trkpt>
      <trkpt lat="41.72647" lon="9.01354">
        <ele>800</ele>
        <time>2003-07-21T21:35:24Z</time>
      </trkpt>
      <trkpt lat="41.72449" lon="9.01312">
        <ele>797</ele>
        <time>2003-07-21T21:35:24Z</time>
      </trkpt>
      <trkpt lat="41.72449" lon="9.01417">
        <ele>802</ele>
        <time>2003-07-21T21:35:24Z</time>
      </trkpt>
      <trkpt lat="41.72331" lon="9.01435">
        <ele>792</ele>
        <time>2003-07-21T21:35:24Z</time>
      </trkpt>
      <trkpt lat="41.72202" lon="9.01331">
        <ele>772</ele>
        <time>2003-07-21T21:35:24Z</time>
      </trkpt>
      <trkpt lat="41.72108" lon="9.01388">
        <ele>769</ele>
        <time>2003-07-21T21:35:24Z</time>
      </trkpt>
      <trkpt lat="41.7214" lon="9.01228">
        <ele>747</ele>
        <time>2003-07-21T21:35:24Z</time>
      </trkpt>
      <trkpt lat="41.72054" lon="9.0131">
        <ele>746</ele>
        <time>2003-07-21T21:35:24Z</time>
      </trkpt>
      <trkpt lat="41.72062" lon="9.01401">
        <ele>753</ele>
        <time>2003-07-21T21:35:24Z</time>
      </trkpt>
      <trkpt lat="41.7192" lon="9.01597">
        <ele>740</ele>
        <time>2003-07-21T21:35:24Z</time>
      </trkpt>
      <trkpt lat="41.71487" lon="9.01582">
        <ele>705</ele>
        <time>2003-07-21T21:35:24Z</time>
      </trkpt>
      <trkpt lat="41.71375" lon="9.0142">
        <ele>681</ele>
        <time>2003-07-21T21:35:24Z</time>
      </trkpt>
      <trkpt lat="41.71334" lon="9.01578">
        <ele>695</ele>
        <time>2003-07-21T21:35:24Z</time>
      </trkpt>
      <trkpt lat="41.71412" lon="9.01701">
        <ele>709</ele>
        <time>2003-07-21T21:35:24Z</time>
      </trkpt>
      <trkpt lat="41.71725" lon="9.02372">
        <ele>547</ele>
        <time>2003-07-21T21:35:24Z</time>
      </trkpt>
      <trkpt lat="41.72101" lon="9.0328">
        <ele>442</ele>
        <time>2003-07-21T21:35:24Z</time>
      </trkpt>
      <trkpt lat="41.72084" lon="9.03332">
        <ele>431</ele>
        <time>2003-07-21T21:35:24Z</time>
      </trkpt>
      <trkpt lat="41.71946" lon="9.03372">
        <ele>409</ele>
        <time>2003-07-21T21:35:24Z</time>
      </trkpt>
      <trkpt lat="41.71972" lon="9.03393">
        <ele>391</ele>
        <time>2003-07-21T21:35:24Z</time>
      </trkpt>
      <trkpt lat="41.71972" lon="9.03552">
        <ele>340</ele>
        <time>2003-07-21T21:35:24Z</time>
      </trkpt>
      <trkpt lat="41.72011" lon="9.03535">
        <ele>325</ele>
        <time>2003-07-21T21:35:24Z</time>
      </trkpt>
      <trkpt lat="41.71941" lon="9.03733">
        <ele>282</ele>
        <time>2003-07-21T21:35:24Z</time>
      </trkpt>
      <trkpt lat="41.71898" lon="9.03728">
        <ele>282</ele>
        <time>2003-07-21T21:35:24Z</time>
      </trkpt>
      <trkpt lat="41.71666" lon="9.03831">
        <ele>269</ele>
        <time>2003-07-21T21:35:24Z</time>
      </trkpt>
      <trkpt lat="41.71472" lon="9.03681">
        <ele>261</ele>
        <time>2003-07-21T21:35:24Z</time>
      </trkpt>
      <trkpt lat="41.71363" lon="9.03766">
        <ele>224</ele>
        <time>2003-07-21T21:35:24Z</time>
      </trkpt>
      <trkpt lat="41.71115" lon="9.03755">
        <ele>200</ele>
        <time>2003-07-21T21:35:24Z</time>
      </trkpt>
      <trkpt lat="41.70985" lon="9.03786">
        <ele>200</ele>
        <time>2003-07-21T21:35:24Z</time>
      </trkpt>
      <trkpt lat="41.70878" lon="9.03917">
        <ele>189</ele>
        <time>2003-07-21T21:35:24Z</time>
      </trkpt>
      <trkpt lat="41.70745" lon="9.0399">
        <ele>161</ele>
        <time>2003-07-21T21:35:24Z</time>
      </trkpt>
      <trkpt lat="41.70583" lon="9.03976">
        <ele>165</ele>
        <time>2003-07-21T21:35:24Z</time>
      </trkpt>
      <trkpt lat="41.70436" lon="9.04048">
        <ele>154</ele>
        <time>2003-07-21T21:35:24Z</time>
      </trkpt>
      <trkpt lat="41.70426" lon="9.04258">
        <ele>162</ele>
        <time>2003-07-21T21:35:24Z</time>
      </trkpt>
      <trkpt lat="41.7047" lon="9.04281">
        <ele>141</ele>
        <time>2003-07-21T21:35:24Z</time>
      </trkpt>
      <trkpt lat="41.70531" lon="9.04248">
        <ele>136</ele>
        <time>2003-07-21T21:35:24Z</time>
      </trkpt>
      <trkpt lat="41.70587" lon="9.0413">
        <ele>143</ele>
        <time>2003-07-21T21:35:24Z</time>
      </trkpt>
      <trkpt lat="41.70686" lon="9.04183">
        <ele>150</ele>
        <time>2003-07-21T21:35:24Z</time>
      </trkpt>
      <trkpt lat="41.70842" lon="9.04145">
        <ele>148</ele>
        <time>2003-07-21T21:35:24Z</time>
      </trkpt>
      <trkpt lat="41.70887" lon="9.04364">
        <ele>202</ele>
        <time>2003-07-21T21:35:24Z</time>
      </trkpt>
      <trkpt lat="41.7075" lon="9.04467">
        <ele>233</ele>
        <time>2003-07-21T21:35:24Z</time>
      </trkpt>
      <trkpt lat="41.7079" lon="9.04522">
        <ele>241</ele>
        <time>2003-07-21T21:35:24Z</time>
      </trkpt>
      <trkpt lat="41.7081" lon="9.04723">
        <ele>271</ele>
        <time>2003-07-21T21:35:24Z</time>
      </trkpt>
      <trkpt lat="41.70781" lon="9.04946">
        <ele>277</ele>
        <time>2003-07-21T21:35:24Z</time>
      </trkpt>
      <trkpt lat="41.70574" lon="9.0512">
        <ele>298</ele>
        <time>2003-07-21T21:35:24Z</time>
      </trkpt>
      <trkpt lat="41.7049" lon="9.05316">
        <ele>324</ele>
        <time>2003-07-21T21:35:24Z</time>
      </trkpt>
      <trkpt lat="41.70447" lon="9.05435">
        <ele>320</ele>
        <time>2003-07-21T21:35:24Z</time>
      </trkpt>
      <trkpt lat="41.70486" lon="9.05539">
        <ele>327</ele>
        <time>2003-07-21T21:35:24Z</time>
      </trkpt>
      <trkpt lat="41.7046" lon="9.05985">
        <ele>332</ele>
        <time>2003-07-21T21:35:24Z</time>
      </trkpt>
      <trkpt lat="41.70421" lon="9.06023">
        <ele>348</ele>
        <time>2003-07-21T21:35:24Z</time>
      </trkpt>
      <trkpt lat="41.70152" lon="9.06004">
        <ele>372</ele>
        <time>2003-07-21T21:35:24Z</time>
      </trkpt>
      <trkpt lat="41.70131" lon="9.06086">
        <ele>394</ele>
        <time>2003-07-21T21:35:24Z</time>
      </trkpt>
      <trkpt lat="41.7003" lon="9.06108">
        <ele>403</ele>
        <time>2003-07-21T21:35:24Z</time>
      </trkpt>
      <trkpt lat="41.69957" lon="9.06089">
        <ele>399</ele>
        <time>2003-07-21T21:35:24Z</time>
      </trkpt>
      <trkpt lat="41.69974" lon="9.06365">
        <ele>435</ele>
        <time>2003-07-21T21:35:24Z</time>
      </trkpt>
      <trkpt lat="41.69761" lon="9.06354">
        <ele>445</ele>
        <time>2003-07-21T21:35:24Z</time>
      </trkpt>
      <trkpt lat="41.69747" lon="9.06464">
        <ele>456</ele>
        <time>2003-07-21T21:35:24Z</time>
      </trkpt>
      <trkpt lat="41.69536" lon="9.06716">
        <ele>476</ele>
        <time>2003-07-21T21:35:24Z</time>
      </trkpt>
      <trkpt lat="41.69528" lon="9.06549">
        <ele>467</ele>
        <time>2003-07-21T21:35:24Z</time>
      </trkpt>
      <trkpt lat="41.69517" lon="9.06768">
        <ele>485</ele>
        <time>2003-07-21T21:35:24Z</time>
      </trkpt>
      <trkpt lat="41.69912" lon="9.06539">
        <ele>504</ele>
        <time>2003-07-21T21:35:24Z</time>
      </trkpt>
      <trkpt lat="41.69641" lon="9.06968">
        <ele>537</ele>
        <time>2003-07-21T21:35:24Z</time>
      </trkpt>
      <trkpt lat="41.69522" lon="9.07109">
        <ele>549</ele>
        <time>2003-07-21T21:35:24Z</time>
      </trkpt>
      <trkpt lat="41.69251" lon="9.07072">
        <ele>563</ele>
        <time>2003-07-21T21:35:24Z</time>
      </trkpt>
      <trkpt lat="41.69145" lon="9.07292">
        <ele>573</ele>
        <time>2003-07-21T21:35:24Z</time>
      </trkpt>
      <trkpt lat="41.69217" lon="9.07411">
        <ele>593</ele>
        <time>2003-07-21T21:35:24Z</time>
      </trkpt>
      <trkpt lat="41.69309" lon="9.07882">
        <ele>613</ele>
        <time>2003-07-21T21:35:24Z</time>
      </trkpt>
      <trkpt lat="41.69363" lon="9.07954">
        <ele>630</ele>
        <time>2003-07-21T21:35:24Z</time>
      </trkpt>
      <trkpt lat="41.69362" lon="9.08352">
        <ele>636</ele>
        <time>2003-07-21T21:35:24Z</time>
      </trkpt>
      <trkpt lat="41.69512" lon="9.08482">
        <ele>663</ele>
        <time>2003-07-21T21:35:24Z</time>
      </trkpt>
      <trkpt lat="41.69563" lon="9.08924">
        <ele>676</ele>
        <time>2003-07-21T21:35:24Z</time>
      </trkpt>
      <trkpt lat="41.69688" lon="9.09022">
        <ele>685</ele>
        <time>2003-07-21T21:35:24Z</time>
      </trkpt>
      <trkpt lat="41.69969" lon="9.09241">
        <ele>716</ele>
        <time>2003-07-21T21:35:24Z</time>
      </trkpt>
      <trkpt lat="41.70097" lon="9.09592">
        <ele>720</ele>
        <time>2003-07-21T21:35:24Z</time>
      </trkpt>
      <trkpt lat="41.70137" lon="9.09753">
        <ele>716</ele>
        <time>2003-07-21T21:35:24Z</time>
      </trkpt>
      <trkpt lat="41.7008" lon="9.0988">
        <ele>705</ele>
        <time>2003-07-21T21:35:24Z</time>
      </trkpt>
      <trkpt lat="41.70107" lon="9.10328">
        <ele>718</ele>
        <time>2003-07-21T21:35:24Z</time>
      </trkpt>
      <trkpt lat="41.70223" lon="9.10398">
        <ele>727</ele>
        <time>2003-07-21T21:35:24Z</time>
      </trkpt>
      <trkpt lat="41.70299" lon="9.10334">
        <ele>733</ele>
        <time>2003-07-21T21:35:24Z</time>
      </trkpt>
      <trkpt lat="41.70484" lon="9.10034">
        <ele>763</ele>
        <time>2003-07-21T21:35:24Z</time>
      </trkpt>
      <trkpt lat="41.70683" lon="9.10067">
        <ele>794</ele>
        <time>2003-07-21T21:35:24Z</time>
      </trkpt>
      <trkpt lat="41.70976" lon="9.10152">
        <ele>804</ele>
        <time>2003-07-21T21:35:24Z</time>
      </trkpt>
      <trkpt lat="41.71056" lon="9.10477">
        <ele>789</ele>
        <time>2003-07-21T21:35:24Z</time>
      </trkpt>
      <trkpt lat="41.7099" lon="9.11157">
        <ele>779</ele>
        <time>2003-07-21T21:35:24Z</time>
      </trkpt>
      <trkpt lat="41.71044" lon="9.11362">
        <ele>771</ele>
        <time>2003-07-21T21:35:24Z</time>
      </trkpt>
      <trkpt lat="41.70973" lon="9.11529">
        <ele>774</ele>
        <time>2003-07-21T21:35:24Z</time>
      </trkpt>
      <trkpt lat="41.71027" lon="9.1168">
        <ele>775</ele>
        <time>2003-07-21T21:35:24Z</time>
      </trkpt>
      <trkpt lat="41.71265" lon="9.11771">
        <ele>755</ele>
        <time>2003-07-21T21:35:24Z</time>
      </trkpt>
      <trkpt lat="41.71344" lon="9.11969">
        <ele>757</ele>
        <time>2003-07-21T21:35:24Z</time>
      </trkpt>
      <trkpt lat="41.71312" lon="9.12237">
        <ele>766</ele>
        <time>2003-07-21T21:35:24Z</time>
      </trkpt>
      <trkpt lat="41.715" lon="9.12498">
        <ele>756</ele>
        <time>2003-07-21T21:35:24Z</time>
      </trkpt>
      <trkpt lat="41.71683" lon="9.12792">
        <ele>755</ele>
        <time>2003-07-21T21:35:24Z</time>
      </trkpt>
      <trkpt lat="41.71817" lon="9.12864">
        <ele>754</ele>
        <time>2003-07-21T21:35:24Z</time>
      </trkpt>
      <trkpt lat="41.71951" lon="9.12811">
        <ele>744</ele>
        <time>2003-07-21T21:35:24Z</time>
      </trkpt>
      <trkpt lat="41.72019" lon="9.12728">
        <ele>734</ele>
        <time>2003-07-21T21:35:24Z</time>
      </trkpt>
      <trkpt lat="41.72246" lon="9.12749">
        <ele>725</ele>
        <time>2003-07-21T21:35:24Z</time>
      </trkpt>
      <trkpt lat="41.72343" lon="9.12784">
        <ele>714</ele>
        <time>2003-07-21T21:35:24Z</time>
      </trkpt>
      <trkpt lat="41.72445" lon="9.12662">
        <ele>704</ele>
        <time>2003-07-21T21:35:24Z</time>
      </trkpt>
      <trkpt lat="41.72343" lon="9.12784">
        <ele>714</ele>
        <time>2003-07-21T21:35:24Z</time>
      </trkpt>
      <trkpt lat="41.72246" lon="9.12749">
        <ele>725</ele>
        <time>2003-07-21T21:35:24Z</time>
      </trkpt>
      <trkpt lat="41.72019" lon="9.12728">
        <ele>734</ele>
        <time>2003-07-21T21:35:24Z</time>
      </trkpt>
      <trkpt lat="41.71951" lon="9.12811">
        <ele>744</ele>
        <time>2003-07-21T21:35:24Z</time>
      </trkpt>
      <trkpt lat="41.71817" lon="9.12864">
        <ele>754</ele>
        <time>2003-07-21T21:35:24Z</time>
      </trkpt>
      <trkpt lat="41.7195" lon="9.1301">
        <ele>746</ele>
        <time>2003-07-21T21:35:24Z</time>
      </trkpt>
      <trkpt lat="41.72013" lon="9.13123">
        <ele>742</ele>
        <time>2003-07-21T21:35:24Z</time>
      </trkpt>
      <trkpt lat="41.72036" lon="9.13267">
        <ele>753</ele>
        <time>2003-07-21T21:35:24Z</time>
      </trkpt>
      <trkpt lat="41.72254" lon="9.13398">
        <ele>743</ele>
        <time>2003-07-21T21:35:24Z</time>
      </trkpt>
      <trkpt lat="41.72319" lon="9.13342">
        <ele>731</ele>
        <time>2003-07-21T21:35:24Z</time>
      </trkpt>
      <trkpt lat="41.72657" lon="9.13583">
        <ele>721</ele>
        <time>2003-07-21T21:35:24Z</time>
      </trkpt>
      <trkpt lat="41.73127" lon="9.13684">
        <ele>699</ele>
        <time>2003-07-21T21:35:24Z</time>
      </trkpt>
      <trkpt lat="41.73074" lon="9.13859">
        <ele>727</ele>
        <time>2003-07-21T21:35:24Z</time>
      </trkpt>
      <trkpt lat="41.73091" lon="9.13867">
        <ele>727</ele>
        <time>2003-07-21T21:35:24Z</time>
      </trkpt>
      <trkpt lat="41.73086" lon="9.13918">
        <ele>729</ele>
        <time>2003-07-21T21:35:24Z</time>
      </trkpt>
      <trkpt lat="41.73016" lon="9.13911">
        <ele>725</ele>
        <time>2003-07-21T21:35:24Z</time>
      </trkpt>
      <trkpt lat="41.72923" lon="9.14067">
        <ele>714</ele>
        <time>2003-07-21T21:35:24Z</time>
      </trkpt>
      <trkpt lat="41.73239" lon="9.1426">
        <ele>712</ele>
        <time>2003-07-21T21:35:24Z</time>
      </trkpt>
      <trkpt lat="41.73494" lon="9.14501">
        <ele>674</ele>
        <time>2003-07-21T21:35:24Z</time>
      </trkpt>
      <trkpt lat="41.73697" lon="9.1499">
        <ele>656</ele>
        <time>2003-07-21T21:35:24Z</time>
      </trkpt>
      <trkpt lat="41.73877" lon="9.15193">
        <ele>622</ele>
        <time>2003-07-21T21:35:24Z</time>
      </trkpt>
      <trkpt lat="41.7394" lon="9.15191">
        <ele>618</ele>
        <time>2003-07-21T21:35:24Z</time>
      </trkpt>
      <trkpt lat="41.7405" lon="9.1539">
        <ele>622</ele>
        <time>2003-07-21T21:35:24Z</time>
      </trkpt>
      <trkpt lat="41.74144" lon="9.15599">
        <ele>622</ele>
        <time>2003-07-21T21:35:24Z</time>
      </trkpt>
      <trkpt lat="41.74111" lon="9.15767">
        <ele>635</ele>
        <time>2003-07-21T21:35:24Z</time>
      </trkpt>
      <trkpt lat="41.74243" lon="9.15944">
        <ele>656</ele>
        <time>2003-07-21T21:35:24Z</time>
      </trkpt>
      <trkpt lat="41.74241" lon="9.16116">
        <ele>674</ele>
        <time>2003-07-21T21:35:24Z</time>
      </trkpt>
      <trkpt lat="41.74287" lon="9.1625">
        <ele>696</ele>
        <time>2003-07-21T21:35:24Z</time>
      </trkpt>
      <trkpt lat="41.7455" lon="9.1658">
        <ele>721</ele>
        <time>2003-07-21T21:35:24Z</time>
      </trkpt>
      <trkpt lat="41.74552" lon="9.16655">
        <ele>721</ele>
        <time>2003-07-21T21:35:24Z</time>
      </trkpt>
      <trkpt lat="41.74502" lon="9.16771">
        <ele>725</ele>
        <time>2003-07-21T21:35:24Z</time>
      </trkpt>
      <trkpt lat="41.74644" lon="9.16888">
        <ele>735</ele>
        <time>2003-07-21T21:35:24Z</time>
      </trkpt>
      <trkpt lat="41.74797" lon="9.17047">
        <ele>759</ele>
        <time>2003-07-21T21:35:24Z</time>
      </trkpt>
      <trkpt lat="41.7493" lon="9.16982">
        <ele>764</ele>
        <time>2003-07-21T21:35:24Z</time>
      </trkpt>
      <trkpt lat="41.75097" lon="9.17178">
        <ele>777</ele>
        <time>2003-07-21T21:35:24Z</time>
      </trkpt>
      <trkpt lat="41.75263" lon="9.17184">
        <ele>766</ele>
        <time>2003-07-21T21:35:24Z</time>
      </trkpt>
      <trkpt lat="41.75446" lon="9.17191">
        <ele>756</ele>
        <time>2003-07-21T21:35:24Z</time>
      </trkpt>
      <trkpt lat="41.7556" lon="9.17288">
        <ele>753</ele>
        <time>2003-07-21T21:35:24Z</time>
      </trkpt>
      <trkpt lat="41.75824" lon="9.17588">
        <ele>728</ele>
        <time>2003-07-21T21:35:24Z</time>
      </trkpt>
      <trkpt lat="41.75858" lon="9.17465">
        <ele>719</ele>
        <time>2003-07-21T21:35:24Z</time>
      </trkpt>
      <trkpt lat="41.7625" lon="9.17603">
        <ele>702</ele>
        <time>2003-07-21T21:35:24Z</time>
      </trkpt>
      <trkpt lat="41.76473" lon="9.17537">
        <ele>681</ele>
        <time>2003-07-21T21:35:24Z</time>
      </trkpt>
      <trkpt lat="41.76819" lon="9.17791">
        <ele>669</ele>
        <time>2003-07-21T21:35:24Z</time>
      </trkpt>
      <trkpt lat="41.76856" lon="9.17741">
        <ele>666</ele>
        <time>2003-07-21T21:35:24Z</time>
      </trkpt>
      <trkpt lat="41.76764" lon="9.1742">
        <ele>659</ele>
        <time>2003-07-21T21:35:24Z</time>
      </trkpt>
      <trkpt lat="41.76879" lon="9.17387">
        <ele>661</ele>
        <time>2003-07-21T21:35:24Z</time>
      </trkpt>
      <trkpt lat="41.76773" lon="9.17243">
        <ele>667</ele>
        <time>2003-07-21T21:35:24Z</time>
      </trkpt>
      <trkpt lat="41.7679" lon="9.17112">
        <ele>680</ele>
        <time>2003-07-21T21:35:24Z</time>
      </trkpt>
      <trkpt lat="41.76708" lon="9.17085">
        <ele>673</ele>
        <time>2003-07-21T21:35:24Z</time>
      </trkpt>
      <trkpt lat="41.76729" lon="9.16913">
        <ele>689</ele>
        <time>2003-07-21T21:35:24Z</time>
      </trkpt>
      <trkpt lat="41.7689" lon="9.16915">
        <ele>704</ele>
        <time>2003-07-21T21:35:24Z</time>
      </trkpt>
      <trkpt lat="41.76896" lon="9.16801">
        <ele>703</ele>
        <time>2003-07-21T21:35:24Z</time>
      </trkpt>
      <trkpt lat="41.76763" lon="9.16539">
        <ele>709</ele>
        <time>2003-07-21T21:35:24Z</time>
      </trkpt>
      <trkpt lat="41.76886" lon="9.16559">
        <ele>719</ele>
        <time>2003-07-21T21:35:24Z</time>
      </trkpt>
      <trkpt lat="41.77049" lon="9.16335">
        <ele>725</ele>
        <time>2003-07-21T21:35:24Z</time>
      </trkpt>
      <trkpt lat="41.77205" lon="9.16354">
        <ele>720</ele>
        <time>2003-07-21T21:35:24Z</time>
      </trkpt>
      <trkpt lat="41.77202" lon="9.16224">
        <ele>727</ele>
        <time>2003-07-21T21:35:24Z</time>
      </trkpt>
      <trkpt lat="41.77067" lon="9.1618">
        <ele>732</ele>
        <time>2003-07-21T21:35:24Z</time>
      </trkpt>
      <trkpt lat="41.76924" lon="9.1592">
        <ele>750</ele>
        <time>2003-07-21T21:35:24Z</time>
      </trkpt>
      <trkpt lat="41.7692" lon="9.15811">
        <ele>761</ele>
        <time>2003-07-21T21:35:24Z</time>
      </trkpt>
      <trkpt lat="41.76715" lon="9.15726">
        <ele>769</ele>
        <time>2003-07-21T21:35:24Z</time>
      </trkpt>
      <trkpt lat="41.76649" lon="9.15468">
        <ele>784</ele>
        <time>2003-07-21T21:35:24Z</time>
      </trkpt>
      <trkpt lat="41.76524" lon="9.15362">
        <ele>791</ele>
        <time>2003-07-21T21:35:24Z</time>
      </trkpt>
      <trkpt lat="41.76438" lon="9.14948">
        <ele>803</ele>
        <time>2003-07-21T21:35:24Z</time>
      </trkpt>
      <trkpt lat="41.7649" lon="9.14758">
        <ele>808</ele>
        <time>2003-07-21T21:35:24Z</time>
      </trkpt>
      <trkpt lat="41.76539" lon="9.14669">
        <ele>809</ele>
        <time>2003-07-21T21:35:24Z</time>
      </trkpt>
      <trkpt lat="41.76535" lon="9.14473">
        <ele>813</ele>
        <time>2003-07-21T21:35:24Z</time>
      </trkpt>
      <trkpt lat="41.76624" lon="9.14181">
        <ele>815</ele>
        <time>2003-07-21T21:35:24Z</time>
      </trkpt>
      <trkpt lat="41.76703" lon="9.14186">
        <ele>824</ele>
        <time>2003-07-21T21:35:24Z</time>
      </trkpt>
      <trkpt lat="41.76765" lon="9.14356">
        <ele>830</ele>
        <time>2003-07-21T21:35:24Z</time>
      </trkpt>
      <trkpt lat="41.76932" lon="9.14395">
        <ele>839</ele>
        <time>2003-07-21T21:35:24Z</time>
      </trkpt>
      <trkpt lat="41.77117" lon="9.14436">
        <ele>866</ele>
        <time>2003-07-21T21:35:24Z</time>
      </trkpt>
      <trkpt lat="41.77227" lon="9.14489">
        <ele>870</ele>
        <time>2003-07-21T21:35:24Z</time>
      </trkpt>
      <trkpt lat="41.77261" lon="9.14442">
        <ele>874</ele>
        <time>2003-07-21T21:35:24Z</time>
      </trkpt>
      <trkpt lat="41.77253" lon="9.14363">
        <ele>881</ele>
        <time>2003-07-21T21:35:24Z</time>
      </trkpt>
      <trkpt lat="41.77182" lon="9.14295">
        <ele>883</ele>
        <time>2003-07-21T21:35:24Z</time>
      </trkpt>
    </trkseg>
  </trk>
</gpx>